User: anonymous   Login
Location: Prairie State College
(41.5244°N, 87.6382°W)
Time: 02:16:56
(UTC-05:00)
Language:

Cosmos 1140 Rocket - Orbit

View from above orbital plane
View from above orbital plane
View from above satellite
View from above satellite

Ground track
Ground track

The orbit data is extracted from the following two-line orbital elements,

1 11574U 79089B   15106.89572738  .00000316  00000-0  10764-3 0  9994
2 11574 074.0698 241.2987 0016264 344.5086 015.5569 14.40439028863054
Epoch (UTC): 16 April 2015 21:29:50
Eccentricity: 0.0016264
inclination: 74.0698°
perigee height: 745 km
apogee height: 768 km
right ascension of ascending node: 241.2987°
argument of perigee: 344.5086°
revolutions per day: 14.40439028
mean anomaly at epoch: 15.5569°
orbit number at epoch: 86305

The dashed part of the orbit path shows where the satellite is in the earth's shadow,  

DLR